• In Austria
  • List of Countries
  • For 7 days
  • Water Temperature
  • Satellite Maps
  • Weather Map
  • News
  • Weather Widgets
  • user-avatar
    Login

    Hourly Weather Suruç

    Today, 19 November, Sunday

    Time Temperature Precipitation Wind Pressure Humidity
    00:00 +16°C° 0 mm 5 mps 720 mmHg 30%
    01:00 +16°C° 0 mm 5 mps 720 mmHg 31%
    02:00 +15°C° 0 mm 5 mps 719 mmHg 32%
    03:00 +15°C° 0 mm 5 mps 719 mmHg 32%
    04:00 +15°C° 0 mm 5 mps 719 mmHg 34%
    05:00 +15°C° 0 mm 6 mps 719 mmHg 36%
    06:00 +14°C° 0 mm 6 mps 719 mmHg 37%
    07:00 +15°C° 0 mm 6 mps 719 mmHg 37%
    08:00 +15°C° 0 mm 6 mps 719 mmHg 37%
    09:00 +16°C° 0 mm 6 mps 719 mmHg 37%
    10:00 +16°C° 0.1 mm 6 mps 719 mmHg 37%
    11:00 +16°C° 0.1 mm 6 mps 720 mmHg 38%
    12:00 +17°C° 0.1 mm 7 mps 720 mmHg 38%
    13:00 +16°C° 0.1 mm 7 mps 719 mmHg 42%
    14:00 +16°C° 0.1 mm 7 mps 719 mmHg 46%
    15:00 +15°C° 0.1 mm 7 mps 719 mmHg 50%
    16:00 +15°C° 0 mm 6 mps 719 mmHg 53%
    17:00 +14°C° 0 mm 6 mps 719 mmHg 56%
    18:00 +13°C° 0 mm 6 mps 719 mmHg 59%
    19:00 +13°C° 0 mm 5 mps 719 mmHg 59%
    20:00 +13°C° 0 mm 5 mps 719 mmHg 60%
    21:00 +13°C° 0 mm 5 mps 719 mmHg 60%
    22:00 +12°C° 0 mm 5 mps 719 mmHg 61%
    23:00 +12°C° 0 mm 5 mps 719 mmHg 62%

    Tomorrow, 20 November, Monday

    Time Temperature Precipitation Wind Pressure Humidity
    00:00 +12°C° 0 mm 4 mps 719 mmHg 62%
    01:00 +12°C° 0 mm 4 mps 719 mmHg 64%
    02:00 +11°C° 0 mm 4 mps 719 mmHg 65%
    03:00 +11°C° 0 mm 4 mps 719 mmHg 66%
    04:00 +11°C° 0 mm 4 mps 719 mmHg 68%
    05:00 +11°C° 0 mm 3 mps 719 mmHg 69%
    06:00 +10°C° 0 mm 3 mps 718 mmHg 71%
    07:00 +11°C° 0 mm 3 mps 718 mmHg 68%
    08:00 +12°C° 0 mm 3 mps 718 mmHg 65%
    09:00 +12°C° 0 mm 3 mps 718 mmHg 62%
    10:00 +14°C° 0 mm 3 mps 718 mmHg 56%
    11:00 +16°C° 0 mm 3 mps 718 mmHg 50%
    12:00 +17°C° 0 mm 3 mps 718 mmHg 44%
    13:00 +18°C° 0 mm 2 mps 717 mmHg 43%
    14:00 +18°C° 0 mm 2 mps 717 mmHg 41%
    15:00 +19°C° 0 mm 1 mps 716 mmHg 40%
    16:00 +19°C° 0 mm 1 mps 716 mmHg 42%
    17:00 +18°C° 0 mm 1 mps 716 mmHg 44%
    18:00 +18°C° 0 mm 1 mps 716 mmHg 46%
    19:00 +16°C° 0.1 mm 2 mps 716 mmHg 50%
    20:00 +16°C° 0.1 mm 2 mps 715 mmHg 54%
    21:00 +15°C° 0.1 mm 2 mps 715 mmHg 59%
    22:00 +15°C° 0 mm 2 mps 715 mmHg 62%
    23:00 +14°C° 0 mm 2 mps 715 mmHg 65%

    Day after tomorrow, 21 November, Tuesday

    Time Temperature Precipitation Wind Pressure Humidity
    00:00 +14°C° 0 mm 1 mps 714 mmHg 68%
    01:00 +14°C° 0 mm 1 mps 714 mmHg 70%
    02:00 +14°C° 0 mm 1 mps 714 mmHg 73%
    03:00 +13°C° 0 mm 1 mps 714 mmHg 76%
    04:00 +13°C° 0.2 mm 1 mps 713 mmHg 78%
    05:00 +13°C° 0.2 mm 2 mps 713 mmHg 80%
    06:00 +13°C° 0.2 mm 2 mps 712 mmHg 82%
    07:00 +12°C° 2 mm 4 mps 712 mmHg 79%
    08:00 +12°C° 2 mm 5 mps 712 mmHg 77%
    09:00 +13°C° 2 mm 6 mps 711 mmHg 75%
    10:00 +14°C° 0.8 mm 7 mps 711 mmHg 70%
    11:00 +14°C° 0.8 mm 7 mps 710 mmHg 65%
    12:00 +15°C° 0.8 mm 7 mps 710 mmHg 60%
    13:00 +15°C° 1.1 mm 7 mps 709 mmHg 62%
    14:00 +14°C° 1.1 mm 7 mps 709 mmHg 65%
    15:00 +14°C° 1.1 mm 7 mps 708 mmHg 67%
    16:00 +12°C° 0.2 mm 7 mps 709 mmHg 63%
    17:00 +13°C° 0.2 mm 6 mps 709 mmHg 59%
    18:00 +13°C° 0.2 mm 6 mps 709 mmHg 55%
    19:00 +11°C° 0 mm 6 mps 709 mmHg 58%
    20:00 +10°C° 0 mm 5 mps 710 mmHg 61%
    21:00 +10°C° 0 mm 5 mps 710 mmHg 63%
    22:00 +9°C° 0 mm 5 mps 711 mmHg 63%
    23:00 +9°C° 0 mm 5 mps 711 mmHg 63%

    22 November, Wednesday

    Time Temperature Precipitation Wind Pressure Humidity
    00:00 +9°C° 0 mm 5 mps 711 mmHg 63%
    01:00 +8°C° 0 mm 5 mps 712 mmHg 61%
    02:00 +8°C° 0 mm 6 mps 712 mmHg 60%
    03:00 +8°C° 0 mm 6 mps 712 mmHg 58%
    04:00 +7°C° 0 mm 6 mps 712 mmHg 58%
    05:00 +7°C° 0 mm 6 mps 713 mmHg 57%
    06:00 +7°C° 0 mm 5 mps 713 mmHg 57%
    07:00 +7°C° 0 mm 6 mps 713 mmHg 54%
    08:00 +8°C° 0 mm 6 mps 714 mmHg 50%
    09:00 +8°C° 0 mm 7 mps 715 mmHg 47%
    10:00 +9°C° 0 mm 6 mps 715 mmHg 43%
    11:00 +10°C° 0 mm 6 mps 715 mmHg 39%
    12:00 +11°C° 0 mm 6 mps 715 mmHg 35%
    13:00 +12°C° 0 mm 5 mps 715 mmHg 34%
    14:00 +13°C° 0 mm 5 mps 716 mmHg 33%
    15:00 +13°C° 0 mm 5 mps 716 mmHg 32%
    16:00 +12°C° 0 mm 4 mps 716 mmHg 35%
    17:00 +11°C° 0 mm 3 mps 716 mmHg 37%
    18:00 +10°C° 0 mm 3 mps 717 mmHg 40%
    19:00 +10°C° 0 mm 3 mps 717 mmHg 42%
    20:00 +9°C° 0 mm 3 mps 718 mmHg 43%
    21:00 +9°C° 0 mm 3 mps 718 mmHg 44%
    22:00 +8°C° 0 mm 3 mps 718 mmHg 45%
    23:00 +8°C° 0 mm 2 mps 719 mmHg 45%

    23 November, Thursday

    Time Temperature Precipitation Wind Pressure Humidity
    00:00 +7°C° 0 mm 2 mps 719 mmHg 45%
    01:00 +7°C° 0 mm 2 mps 719 mmHg 45%
    02:00 +7°C° 0 mm 2 mps 719 mmHg 45%
    03:00 +6°C° 0 mm 2 mps 719 mmHg 45%
    04:00 +6°C° 0 mm 2 mps 719 mmHg 46%
    05:00 +6°C° 0 mm 2 mps 719 mmHg 46%
    06:00 +6°C° 0 mm 2 mps 719 mmHg 46%
    07:00 +7°C° 0 mm 2 mps 719 mmHg 44%
    08:00 +7°C° 0 mm 2 mps 720 mmHg 42%
    09:00 +8°C° 0 mm 2 mps 720 mmHg 40%
    10:00 +10°C° 0 mm 2 mps 720 mmHg 38%
    11:00 +11°C° 0 mm 3 mps 720 mmHg 36%
    12:00 +13°C° 0 mm 4 mps 720 mmHg 35%
    13:00 +13°C° 0 mm 4 mps 720 mmHg 34%
    14:00 +13°C° 0 mm 4 mps 720 mmHg 34%
    15:00 +14°C° 0 mm 4 mps 720 mmHg 33%
    16:00 +13°C° 0 mm 3 mps 720 mmHg 36%
    17:00 +12°C° 0 mm 3 mps 720 mmHg 39%
    18:00 +13°C° 0 mm 2 mps 720 mmHg 42%
    19:00 +12°C° 0 mm 2 mps 720 mmHg 44%
    20:00 +12°C° 0 mm 2 mps 721 mmHg 45%
    21:00 +12°C° 0 mm 2 mps 721 mmHg 46%
    22:00 +10°C° 0 mm 3 mps 721 mmHg 47%
    23:00 +10°C° 0 mm 3 mps 721 mmHg 49%

    24 November, Friday

    Time Temperature Precipitation Wind Pressure Humidity
    00:00 +9°C° 0 mm 3 mps 721 mmHg 50%
    01:00 +8°C° 0 mm 3 mps 721 mmHg 52%
    02:00 +8°C° 0 mm 3 mps 721 mmHg 53%
    03:00 +7°C° 0 mm 3 mps 721 mmHg 55%
    04:00 +7°C° 0 mm 3 mps 721 mmHg 55%
    05:00 +7°C° 0 mm 3 mps 721 mmHg 55%
    06:00 +5°C° 0 mm 3 mps 722 mmHg 55%
    07:00 +7°C° 0 mm 3 mps 722 mmHg 51%
    08:00 +7°C° 0 mm 3 mps 723 mmHg 48%
    09:00 +7°C° 0 mm 4 mps 723 mmHg 44%
    10:00 +8°C° 0 mm 4 mps 723 mmHg 39%
    11:00 +10°C° 0 mm 4 mps 723 mmHg 33%
    12:00 +10°C° 0 mm 5 mps 723 mmHg 28%
    13:00 +12°C° 0 mm 4 mps 723 mmHg 26%
    14:00 +12°C° 0 mm 4 mps 723 mmHg 24%
    15:00 +13°C° 0 mm 4 mps 722 mmHg 23%
    16:00 +12°C° 0 mm 4 mps 722 mmHg 26%
    17:00 +11°C° 0 mm 3 mps 722 mmHg 29%
    18:00 +10°C° 0 mm 2 mps 723 mmHg 32%
    19:00 +9°C° 0 mm 2 mps 723 mmHg 34%
    20:00 +9°C° 0 mm 2 mps 723 mmHg 36%
    21:00 +8°C° 0 mm 2 mps 723 mmHg 38%
    22:00 +8°C° 0 mm 2 mps 723 mmHg 39%
    23:00 +7°C° 0 mm 2 mps 723 mmHg 40%
    Show more